Hourly Data Report for August 02, 2020

SVARTEVAEG
NUNAVUT
Current Station Operator: ECCC - MSC

81°09'39.000" N
91°48'59.060" W
72.00 m
2403833
71872
NSG

Download Data

Hourly Data (August 2020)
Hourly Data Report for August 2, 2020
TIME Temp Definition
°C
Dew Point Definition
°C
Rel Hum Definition
%
Wind Dir Definition
10's deg

Wind Spd Definition
km/h
Visibility Definition
km
Stn Press Definition
kPa
Hmdx Definition


Wind Chill Definition


Weather Definition


00:00 -0.6 -1.4 94 27 20   99.24   -6 LegendNANA
01:00 -0.7 -1.3 96 27 17   99.24   -6 LegendNANA
02:00 -1.1 -1.5 97 17 5   99.23   -3 LegendNANA
03:00 -1.0 -1.2 98 11 9   99.21   -4 LegendNANA
04:00 -0.8 -1.2 97 10 9   99.18   -4 LegendNANA
05:00 -1.0 -1.5 96 14 9   99.19   -4 LegendNANA
06:00 -1.1 -1.6 96 16 10   99.18   -5 LegendNANA
07:00 -0.8 -1.4 96 18 5   99.18   -2 LegendNANA
08:00 -0.6 -1.5 94 20 11   99.17   -4 LegendNANA
09:00 -0.5 -1.5 93 19 12   99.15   -4 LegendNANA
10:00 0.1 -2.0 86 19 9   99.14     LegendNANA
11:00 0.5 -1.6 86 19 5   99.16     LegendNANA
12:00 0.3 -1.7 87 10 3   99.19     LegendNANA
13:00 0.4 -2.0 84 3 3   99.21     LegendNANA
14:00 0.3 -2.0 84 2 5   99.26     LegendNANA
15:00 -0.5 -1.2 95 33 21   99.30   -6 LegendNANA
16:00 0.6 -2.1 83 33 21   99.34     LegendNANA
17:00 0.1 -2.2 84 32 20   99.40     LegendNANA
18:00 0.4 -2.3 82 33 22   99.46     LegendNANA
19:00 -0.4 -2.0 89 33 26   99.50   -7 LegendNANA
20:00 -0.3 -2.9 82 32 21   99.53   -6 LegendNANA
21:00 -0.3 -3.2 80 29 27   99.55   -7 LegendNANA
22:00 -1.0 -3.3 84 27 42   99.55   -9 LegendNANA
23:00 -1.8 -3.6 87 27 37   99.63   -10 LegendNANA

Notes on Data Quality.

Legend

  • E = Estimated
  • M = Missing
  • NA = Not Available*
  • [empty] = Indicates an unobserved value
Date modified: